Theta_e
359 359 360 362 363 364 363 363 364 366 366 366 365 365 364 364 365 366 367 367 364 354 351 343 344 343 340 342 337 328 323 321 316 319 321 324 325 323 320 322 323 321 319
359 365 363 363 363 362 363 364 365 366 367 366 366 365 365 365 368 368 365 365 358 354 350 349 347 338 339 335 326 327 324 324 320 320 322 319 321 321 320 323 321 318 319
361 360 362 364 367 367 366 366 366 366 366 364 364 365 366 368 369 368 368 358 358 351 352 350 344 340 332 326 324 323 322 322 322 318 317 318 317 316 319 323 322 321 316
358 359 361 362 363 363 366 366 366 366 365 364 365 366 368 369 369 368 361 355 351 354 351 349 341 333 328 327 326 326 325 323 323 318 316 314 315 318 319 317 317 315 312
360 358 360 363 364 364 364 365 365 365 365 365 365 367 369 368 367 369 359 351 354 349 344 335 330 327 325 326 324 326 327 322 319 316 313 313 314 314 314 317 316 318 315
358 358 361 363 363 363 364 364 365 366 366 367 366 366 367 365 336 339 349 350 350 340 331 325 323 324 323 323 323 321 322 324 322 316 313 313 315 314 314 314 315 313 306
361 359 361 364 362 364 364 365 364 366 368 367 367 368 369 366 330 331 337 351 345 338 333 327 323 321 325 323 321 321 319 318 319 321 316 314 314 315 314 315 317 317 310
358 358 360 361 362 364 365 365 367 367 367 367 368 370 371 352 325 325 332 348 341 336 332 328 326 327 327 327 326 324 323 323 321 316 316 315 315 316 318 319 321 321 319
357 358 360 362 362 363 363 365 367 367 368 368 370 371 362 335 319 322 337 343 337 334 331 330 328 326 318 320 325 323 323 322 313 315 315 313 315 313 314 317 316 316 314
357 359 362 363 363 363 366 368 369 369 369 366 370 371 343 340 315 317 334 339 334 330 332 327 322 323 315 316 326 323 321 323 321 318 318 317 317 314 316 319 316 314 313
360 362 363 365 367 368 370 370 370 369 370 370 368 359 356 346 326 314 319 341 335 332 327 323 321 312 310 311 315 323 321 323 318 316 315 314 313 315 317 317 315 312 310
362 362 363 366 363 365 370 369 370 370 370 367 356 352 350 343 319 312 314 323 328 336 331 325 321 308 306 307 313 310 313 317 315 314 313 312 310 312 314 317 317 312 311
363 363 365 367 365 367 368 368 365 370 364 357 353 346 341 341 328 310 310 315 320 334 329 319 309 303 304 309 308 308 308 318 315 312 312 312 311 312 318 320 322 320 314
364 365 366 366 365 368 366 366 361 361 360 358 355 346 343 344 335 325 327 327 316 322 315 319 317 315 313 315 314 315 319 317 315 313 313 313 313 312 312 316 319 318 315
363 363 363 362 363 365 366 359 360 365 356 358 357 354 350 345 339 327 327 331 330 319 321 320 319 321 319 318 320 319 317 317 315 314 313 313 312 311 312 315 319 319 316
359 358 356 355 357 359 359 357 312 313 318 319 325 344 353 326 309 306 304 303 303 306 319 319 320 320 319 319 319 318 317 316 315 314 314 313 311 311 311 312 316 315 316
362 360 358 354 358 361 360 358 356 331 305 303 308 314 318 311 304 300 299 299 301 305 321 321 321 320 320 319 319 318 317 316 320 314 314 313 312 311 311 311 311 313 316
367 334 363 362 360 359 359 359 358 354 351 343 309 309 300 300 299 297 297 303 311 313 323 322 322 322 320 320 319 318 318 317 315 314 314 314 313 312 310 311 311 311 314
364 366 364 363 362 355 360 358 357 357 355 345 325 308 298 294 294 295 299 329 323 322 323 323 324 323 322 321 320 321 321 317 315 314 314 314 314 312 310 310 309 305 308
341 335 345 361 360 362 360 358 355 354 354 349 334 332 308 306 307 304 311 332 330 324 323 323 324 323 322 322 321 322 320 317 317 315 314 314 314 313 312 311 311 310 311
343 344 337 357 359 359 358 358 355 353 349 343 341 337 311 323 316 312 319 325 333 327 324 324 323 323 324 323 323 321 320 318 318 316 314 314 314 313 313 313 312 312 312
338 345 348 350 352 355 354 356 357 358 355 352 348 326 302 324 324 324 319 333 336 330 327 326 323 324 323 322 322 321 320 319 318 317 315 314 314 314 313 312 312 312 311
334 337 337 337 339 333 350 351 351 352 352 352 352 336 319 323 327 322 325 328 338 332 327 327 325 323 324 323 323 323 320 319 319 318 315 314 314 314 313 313 312 312 311
324 327 328 331 331 331 336 344 350 333 347 347 344 333 330 328 332 328 328 329 332 332 329 326 327 325 326 322 323 324 322 322 321 320 318 315 314 310 314 313 312 312 312
319 319 320 320 323 324 323 330 334 349 348 344 341 336 334 331 330 330 328 326 324 324 328 329 328 326 324 324 323 323 313 295 318 310 319 317 316 316 314 313 313 313 313
315 315 316 317 317 318 320 323 325 328 332 342 342 340 339 334 331 331 327 325 324 325 325 330 329 326 325 325 323 311 293 293 308 298 319 318 315 314 315 315 314 312 312
Wind_Speed
18 17 16 15 15 14 13 12 12 10 9 9 8 9 9 10 9 7 7 7 5 4 4 4 4 4 3 2 4 5 6 7 6 3 5 6 7 9 10 9 9 7 11
16 14 15 15 14 14 13 13 12 11 9 8 8 8 8 8 8 7 7 4 3 4 5 4 5 5 5 4 6 8 8 7 4 4 4 6 7 9 10 9 7 7 6
16 16 15 14 13 13 13 12 12 11 9 9 7 8 7 7 6 4 3 5 5 6 6 7 7 7 7 6 7 6 5 5 5 5 6 6 8 10 10 9 6 7 8
18 17 15 15 15 14 13 12 12 11 10 9 8 7 7 6 5 3 7 7 7 7 9 9 8 8 7 7 8 6 5 3 4 6 7 7 9 10 10 10 8 6 6
16 17 16 15 14 13 12 12 10 10 9 8 7 7 6 5 3 6 8 9 8 11 10 10 10 11 14 13 6 6 7 8 7 7 8 8 10 11 12 10 9 7 6
17 18 16 15 14 13 13 11 10 9 9 8 7 6 5 4 14 13 10 9 11 11 11 12 12 12 14 14 13 16 13 8 10 10 9 10 11 11 11 11 8 8 6
16 16 15 15 15 13 12 11 10 10 8 8 6 6 5 8 13 13 9 10 11 11 11 11 10 10 10 11 9 11 10 9 8 10 10 11 10 12 11 11 10 6 6
17 16 15 15 15 13 12 11 10 9 9 7 7 6 6 7 13 13 9 12 11 11 10 10 11 9 7 6 7 7 8 10 11 9 11 10 10 11 11 9 11 7 3
17 16 16 16 14 14 13 12 11 9 8 7 7 7 10 10 11 13 11 12 12 11 10 10 10 9 5 2 6 7 6 6 7 5 4 2 2 4 11 10 11 8 5
15 16 15 15 14 14 13 13 11 9 8 8 8 8 11 13 10 9 11 10 12 10 10 9 6 10 5 4 5 5 6 6 7 7 8 4 6 6 14 15 13 11 11
14 13 14 14 13 13 12 11 11 10 9 9 9 9 11 14 13 10 7 10 9 9 9 9 8 9 6 4 6 5 6 5 3 4 7 8 9 10 9 12 15 13 11
13 13 14 13 12 11 12 11 11 10 11 9 10 9 8 11 10 5 5 6 8 8 9 8 11 9 7 4 2 5 5 6 5 6 7 8 9 8 8 8 12 11 11
14 13 13 13 12 12 12 12 11 11 10 10 9 9 9 9 9 9 6 11 5 7 7 12 16 10 9 9 6 7 10 4 4 6 7 8 8 6 7 7 11 12 12
13 13 12 13 12 12 10 10 10 10 10 10 10 10 10 11 10 10 9 9 10 10 15 12 10 8 2 10 7 7 4 5 6 6 6 6 7 7 8 7 8 9 10
10 11 12 11 12 11 9 6 9 9 9 11 11 12 13 12 13 13 14 12 11 10 12 11 10 9 8 7 5 5 5 5 5 5 5 6 7 7 8 7 8 9 10
9 10 10 10 10 10 9 7 16 11 9 6 9 10 11 10 21 14 13 13 18 19 10 10 9 9 8 7 7 6 5 4 5 5 5 6 7 7 7 8 8 9 10
7 8 8 8 9 7 7 8 8 7 14 13 9 7 7 15 24 17 17 19 20 14 10 9 9 9 8 8 8 7 6 6 5 5 5 5 5 6 6 8 8 9 11
4 5 5 4 5 6 6 5 6 7 7 5 11 9 11 18 20 20 17 16 11 10 10 10 9 9 9 8 8 7 8 7 6 5 5 5 5 5 6 7 8 9 10
6 2 5 5 5 5 5 6 6 7 7 7 5 8 11 11 11 17 22 13 14 12 10 10 10 10 9 10 8 8 8 8 7 6 6 5 6 7 8 8 9 8 9
9 11 8 4 5 4 5 5 5 6 7 8 8 9 9 8 10 10 11 9 12 12 12 11 11 11 10 10 9 9 9 9 9 7 6 6 6 6 6 7 7 8 9
6 8 9 6 6 2 3 3 3 4 4 5 7 10 17 14 15 14 14 10 12 12 12 11 11 10 11 11 10 10 10 10 10 9 8 7 7 7 7 7 7 8 9
9 9 6 8 7 5 5 5 3 5 7 7 7 7 15 5 8 13 11 14 12 12 10 10 10 11 11 12 12 11 11 11 11 10 10 9 8 8 8 7 7 7 8
9 10 5 8 10 11 7 4 4 4 4 5 5 8 10 8 10 10 12 11 12 13 11 11 10 11 10 9 10 12 12 12 12 11 11 11 10 9 9 9 8 7 7
11 11 11 13 10 9 8 10 4 5 5 6 6 6 8 10 11 12 11 12 9 11 13 13 12 15 12 9 9 11 12 11 12 13 15 12 11 10 10 10 10 10 8
9 10 13 11 10 9 9 8 11 7 4 4 5 5 6 7 9 7 9 8 8 10 12 15 14 17 18 20 17 16 15 13 15 14 13 14 14 16 12 10 11 10 9
8 10 10 9 9 10 9 9 9 8 10 4 4 5 6 7 9 10 9 10 9 11 11 11 16 22 24 21 22 21 12 13 12 13 15 13 13 13 11 12 16 11 13
Wind_Direction
206 205 212 212 217 220 227 233 239 243 243 253 257 266 275 284 290 294 287 290 329 74 83 102 79 94 66 44 23 10 21 360 11 79 6 64 335 348 352 338 343 300 99
204 207 207 211 214 217 226 232 237 239 237 244 250 262 272 278 287 288 292 11 110 119 123 118 116 96 91 33 61 36 42 31 24 7 49 13 3 6 341 344 346 5 326
199 202 206 207 208 216 222 227 234 235 235 244 240 248 258 267 283 284 27 98 109 118 126 116 100 91 66 61 43 50 62 36 29 31 15 22 2 14 351 9 20 2 78
195 198 202 204 206 213 219 223 227 230 234 236 236 244 250 258 258 103 114 114 113 118 93 104 99 96 100 89 80 83 44 25 51 29 20 14 14 7 1 0 16 49 38
194 198 202 202 207 213 214 215 218 219 225 230 234 238 241 237 223 133 128 127 132 110 106 107 87 80 57 43 78 48 22 25 28 27 25 16 12 356 7 358 5 0 110
191 200 198 198 199 208 212 210 209 212 218 223 225 236 229 240 107 113 137 143 120 120 112 105 106 108 81 69 68 54 38 39 48 16 25 8 7 1 4 350 359 19 8
190 195 197 193 197 202 208 205 205 206 211 215 219 216 212 97 121 128 155 130 131 125 127 133 122 115 126 109 111 114 81 77 62 45 26 16 3 360 348 352 351 21 34
190 190 190 193 195 195 198 197 197 203 206 209 206 194 127 110 128 138 142 129 126 127 128 119 121 135 112 112 91 77 69 60 44 42 43 28 24 1 346 349 337 97 128
189 189 186 187 190 187 190 191 191 197 192 198 195 180 123 139 143 152 148 136 127 123 116 125 130 126 99 326 94 88 86 91 141 133 121 158 167 327 338 357 5 20 35
194 185 182 183 186 186 185 183 186 188 185 193 184 136 135 148 167 174 155 134 137 129 123 123 71 123 145 325 102 98 87 69 54 38 55 83 69 89 41 32 16 20 19
188 183 179 182 182 184 179 176 176 179 167 194 132 129 154 154 166 183 195 146 143 149 138 149 130 121 126 63 358 74 82 103 151 47 48 42 43 58 51 45 35 35 24
174 176 178 179 184 173 173 170 172 172 172 145 140 140 142 150 147 176 163 123 147 144 147 136 127 131 135 96 60 132 196 233 76 54 47 40 42 39 56 47 73 62 50
168 172 175 178 180 165 171 170 172 174 159 167 167 149 146 157 151 114 117 117 127 149 130 107 116 128 129 105 119 214 237 102 76 63 50 44 44 52 39 82 115 101 79
167 170 171 176 172 170 177 178 184 183 180 178 170 158 161 161 160 166 150 136 116 105 116 129 138 137 19 108 171 220 94 66 66 69 60 51 59 49 51 53 58 74 67
174 175 175 181 182 173 188 181 192 196 190 181 178 172 171 174 177 173 164 163 158 141 137 146 160 167 159 171 157 123 132 135 101 89 68 55 57 62 55 55 63 60 58
184 184 184 180 188 183 163 156 54 28 95 76 170 183 183 140 137 159 144 128 128 149 160 168 170 169 172 167 161 153 125 126 112 101 82 67 62 59 70 68 67 61 59
223 186 171 192 183 156 174 175 171 65 61 50 35 101 140 149 146 151 143 139 150 164 170 175 176 177 175 171 172 165 151 120 138 120 101 88 80 82 78 77 74 73 73
85 27 170 134 164 159 164 164 153 169 168 147 51 52 111 151 148 143 138 132 161 212 179 176 180 182 178 176 175 168 138 164 140 138 122 103 90 86 89 88 83 86 86
336 86 99 111 121 112 142 153 165 164 160 147 126 64 73 68 104 143 165 168 175 195 192 179 179 182 181 175 176 168 162 165 148 152 138 125 118 101 95 93 80 65 94
351 359 14 92 125 143 150 165 177 177 170 165 165 154 144 145 157 169 199 206 186 193 194 191 178 179 180 180 171 172 179 159 160 163 153 143 136 124 122 117 110 106 98
351 8 355 35 19 77 153 174 179 183 181 174 193 175 178 181 169 176 190 208 200 198 197 193 176 182 173 177 177 182 181 175 176 161 159 161 157 138 129 126 122 116 115
12 338 35 33 18 8 357 332 280 213 202 202 183 150 160 239 173 187 189 198 199 202 194 187 189 185 191 174 177 185 184 183 179 166 166 163 161 156 147 145 137 124 130
3 341 11 37 31 360 315 316 294 267 250 235 201 155 176 195 185 185 205 209 203 196 187 192 190 177 199 179 172 191 189 185 180 174 171 169 170 164 164 158 154 159 149
24 340 359 29 20 357 347 326 262 252 247 220 188 177 181 190 208 195 200 210 211 203 186 186 191 187 181 179 181 190 199 182 180 178 176 174 174 170 168 168 167 162 160
6 3 22 15 355 350 335 350 345 298 255 219 192 199 196 196 204 201 203 208 213 199 203 190 182 190 175 184 188 195 189 166 186 172 183 181 177 180 175 176 169 168 167
2 34 23 8 356 347 342 342 338 340 340 281 228 229 223 212 217 212 199 197 191 224 207 197 190 186 184 192 195 194 156 166 181 184 187 181 181 184 185 188 177 176 168